Search the data

BODC Cruise Metadata Report for FRV Scotia (749S) cruise 0392S

Introduction

This report collates information from the BODC cruise inventory and oceanographic databases. It presents

Cruise Inventory Information

Long name FRV Scotia (749S) cruise 0392S
Short name 0392S
Objectives and Narrative (1) To conduct a survey of haddock and cod egg and larvae distribution over a wide area of the NW shelf and northern North Sea.
(2) To sample adult haddock and cod over the survey area to assess their spawning state.
(3) To collect additional samples of fish eggs and larvae at selected key sites for otolith microstructure analysis, and measurements for molecular markers of hydrocarbon pollution.
(4) To collect water samples at North Sea Task Force sampling stations.
(5) To collect a water sample for radio-caesium monitoring.
Ship FRV Scotia
Departure Port Aberdeen, United Kingdom
Departure Date 1992-03-26
Arrival Port Aberdeen, United Kingdom
Arrival Date 1992-04-14
Principal Scientist(s) Mike R Heath (Scottish Office Agriculture and Fisheries Department Aberdeen Marine Laboratory)
Responsible Organisation
Associated Project(s)
IHB Sea Areas Visited North Sea, Inner Seas off the West Coast of Scotland, North East Atlantic Ocean (limit 40W)
Marsden Squares Visited 181;3/181;4/216;3/217;1/252;1
Work Area Description NW Shelf and northern North Sea
Work Area Bounding Polygon 55N,10W; 65N,10W; 65N,5E; 55N,5E; 55N,10W
Southern Limit 55N
Northern Limit 65N
Western Limit 10W
Eastern Limit 5E

Cruise Inventory Datasets

Physical oceanography  
CTD stations Quantity: number of stations = 155
Description: 2 with S only  
Optics (eg underwater light levels) Description: +B02,H16,H17 whole track 2-4m depth  
Surface measurements underway (T,S) Description: +B02,H16,H17 whole track 2-4m depth  
Transparency (eg transmissometer) Description:  
Transparency (eg transmissometer) Description: +B02,H16,H17 whole track 2-4m depth  
Chemical oceanography  
Radioactivity Quantity: number of samples = 1
Description:  
Contamination  
Petroleum residues Description: hydrocarbon analysis  
Biology and fisheries  
Demersal fish Quantity: number of hauls = 13
Description: trawls  
Eggs and larvae Description:  
Phytoplankton Quantity: number of samples = 157
Description:  
Phytoplankton pigs (eg chlorophyll, fluorescence) Description: +B02,H16,H17 whole track 2-4m depth  
Phytoplankton pigs (eg chlorophyll, fluorescence) Description:  
Zooplankton Description:  

Cruise Inventory Mooring/Buoy Operations

No information on datasets is currently available

Summary of BODC Data Holdings for the Cruise

National Oceanographic Database

Summary

# Series Instrument Description Parameters
153 CTD/STD cast Chlorophyll pigment concentrations in water bodies
Density of the water column
Electrical conductivity of the water column
Salinity of the water column
Temperature of the water column
Vertical spatial coordinates

Note: Parameter terms are taken from the BODC Parameter Discovery Vocabulary XML (SKOS)

Full List

BODC Reference Instrument Description Date/Time Location  
413094 CTD/STD cast 1992-03-27 09:03Z 57° 57' N, 3° 4' W Click for more
413101 CTD/STD cast 1992-03-28 01:29Z 58° 22' N, 5° 42' W Click for more
413113 CTD/STD cast 1992-03-28 03:24Z 58° 17' N, 5° 30' W Click for more
413125 CTD/STD cast 1992-03-28 11:30Z 57° 45' N, 5° 55' W Click for more
413137 CTD/STD cast 1992-03-28 18:18Z 57° 10' N, 7° 0' W Click for more
413149 CTD/STD cast 1992-03-28 22:34Z 56° 40' N, 6° 39' W Click for more
413150 CTD/STD cast 1992-03-29 00:14Z 56° 40' N, 6° 58' W Click for more
413162 CTD/STD cast 1992-03-29 02:46Z 56° 40' N, 7° 19' W Click for more
413174 CTD/STD cast 1992-03-29 03:31Z 56° 40' N, 7° 39' W Click for more
413186 CTD/STD cast 1992-03-29 16:51Z 55° 54' N, 6° 40' W Click for more
413198 CTD/STD cast 1992-03-29 18:10Z 55° 55' N, 7° 0' W Click for more
413205 CTD/STD cast 1992-03-29 19:41Z 55° 54' N, 7° 21' W Click for more
413217 CTD/STD cast 1992-03-29 21:09Z 55° 55' N, 7° 43' W Click for more
413229 CTD/STD cast 1992-03-30 00:47Z 55° 55' N, 8° 3' W Click for more
413230 CTD/STD cast 1992-03-30 02:42Z 55° 57' N, 8° 20' W Click for more
413242 CTD/STD cast 1992-03-30 07:46Z 56° 40' N, 8° 0' W Click for more
413254 CTD/STD cast 1992-03-30 09:33Z 56° 41' N, 8° 21' W Click for more
413266 CTD/STD cast 1992-03-31 06:00Z 57° 40' N, 9° 39' W Click for more
413278 CTD/STD cast 1992-03-31 07:49Z 57° 40' N, 9° 20' W Click for more
413291 CTD/STD cast 1992-03-31 12:26Z 57° 40' N, 8° 59' W Click for more
413309 CTD/STD cast 1992-03-31 14:21Z 57° 40' N, 8° 39' W Click for more
413310 CTD/STD cast 1992-03-31 17:48Z 57° 40' N, 8° 21' W Click for more
413322 CTD/STD cast 1992-04-01 05:49Z 58° 17' N, 7° 4' W Click for more
413334 CTD/STD cast 1992-04-01 06:59Z 58° 24' N, 7° 17' W Click for more
413346 CTD/STD cast 1992-04-01 08:55Z 58° 31' N, 7° 32' W Click for more
413358 CTD/STD cast 1992-04-01 11:25Z 58° 37' N, 7° 46' W Click for more
413371 CTD/STD cast 1992-04-01 12:54Z 58° 46' N, 8° 0' W Click for more
413383 CTD/STD cast 1992-04-01 19:15Z 59° 13' N, 7° 21' W Click for more
413395 CTD/STD cast 1992-04-01 21:02Z 59° 3' N, 7° 9' W Click for more
413402 CTD/STD cast 1992-04-01 22:59Z 58° 57' N, 6° 50' W Click for more
413414 CTD/STD cast 1992-04-02 00:53Z 58° 51' N, 6° 40' W Click for more
413426 CTD/STD cast 1992-04-02 02:53Z 58° 45' N, 6° 23' W Click for more
413438 CTD/STD cast 1992-04-02 05:16Z 58° 39' N, 6° 11' W Click for more
413451 CTD/STD cast 1992-04-02 09:39Z 58° 33' N, 5° 57' W Click for more
413463 CTD/STD cast 1992-04-02 16:07Z 58° 52' N, 4° 27' W Click for more
413475 CTD/STD cast 1992-04-02 18:09Z 58° 58' N, 4° 42' W Click for more
413487 CTD/STD cast 1992-04-02 22:06Z 59° 4' N, 4° 57' W Click for more
413499 CTD/STD cast 1992-04-02 23:53Z 59° 12' N, 5° 11' W Click for more
413506 CTD/STD cast 1992-04-03 01:30Z 59° 19' N, 5° 25' W Click for more
413518 CTD/STD cast 1992-04-03 03:00Z 59° 27' N, 5° 39' W Click for more
413531 CTD/STD cast 1992-04-03 05:47Z 59° 39' N, 6° 7' W Click for more
413543 CTD/STD cast 1992-04-03 10:47Z 60° 3' N, 4° 52' W Click for more
413555 CTD/STD cast 1992-04-03 12:58Z 59° 53' N, 4° 34' W Click for more
413567 CTD/STD cast 1992-04-03 14:27Z 59° 46' N, 4° 22' W Click for more
413579 CTD/STD cast 1992-04-03 16:03Z 59° 41' N, 4° 10' W Click for more
413580 CTD/STD cast 1992-04-03 21:24Z 59° 28' N, 3° 40' W Click for more
413592 CTD/STD cast 1992-04-03 22:40Z 59° 21' N, 3° 25' W Click for more
413611 CTD/STD cast 1992-04-04 03:49Z 59° 44' N, 1° 59' W Click for more
413623 CTD/STD cast 1992-04-04 05:51Z 59° 53' N, 2° 16' W Click for more
413635 CTD/STD cast 1992-04-04 08:16Z 59° 59' N, 2° 29' W Click for more
413647 CTD/STD cast 1992-04-04 09:45Z 60° 6' N, 2° 44' W Click for more
413659 CTD/STD cast 1992-04-04 10:57Z 60° 12' N, 2° 58' W Click for more
413660 CTD/STD cast 1992-04-04 12:28Z 60° 19' N, 3° 15' W Click for more
413672 CTD/STD cast 1992-04-04 15:11Z 60° 29' N, 3° 22' W Click for more
413684 CTD/STD cast 1992-04-04 18:41Z 60° 51' N, 2° 30' W Click for more
413696 CTD/STD cast 1992-04-04 22:16Z 60° 43' N, 2° 16' W Click for more
413703 CTD/STD cast 1992-04-04 23:32Z 60° 37' N, 2° 3' W Click for more
413715 CTD/STD cast 1992-04-05 02:26Z 60° 31' N, 1° 51' W Click for more
413727 CTD/STD cast 1992-04-05 06:42Z 61° 11' N, 0° 59' W Click for more
413739 CTD/STD cast 1992-04-05 08:14Z 61° 16' N, 1° 16' W Click for more
413740 CTD/STD cast 1992-04-05 12:46Z 61° 39' N, 0° 10' W Click for more
413752 CTD/STD cast 1992-04-05 13:54Z 61° 40' N, 0° 3' E Click for more
413764 CTD/STD cast 1992-04-05 15:07Z 61° 40' N, 0° 19' E Click for more
413776 CTD/STD cast 1992-04-05 16:27Z 61° 40' N, 0° 41' E Click for more
413788 CTD/STD cast 1992-04-05 17:47Z 61° 40' N, 1° 3' E Click for more
413807 CTD/STD cast 1992-04-05 19:44Z 61° 40' N, 1° 25' E Click for more
413819 CTD/STD cast 1992-04-05 20:48Z 61° 40' N, 1° 37' E Click for more
413820 CTD/STD cast 1992-04-05 21:26Z 61° 39' N, 1° 40' E Click for more
413832 CTD/STD cast 1992-04-07 10:41Z 60° 31' N, 0° 41' W Click for more
413844 CTD/STD cast 1992-04-07 16:50Z 61° 10' N, 0° 38' W Click for more
413856 CTD/STD cast 1992-04-07 18:14Z 61° 10' N, 0° 18' W Click for more
413868 CTD/STD cast 1992-04-07 19:36Z 61° 10' N, 0° 1' E Click for more
413881 CTD/STD cast 1992-04-07 20:54Z 61° 10' N, 0° 20' E Click for more
413893 CTD/STD cast 1992-04-07 22:09Z 61° 10' N, 0° 42' E Click for more
413900 CTD/STD cast 1992-04-07 23:29Z 61° 9' N, 1° 1' E Click for more
413912 CTD/STD cast 1992-04-08 00:48Z 61° 9' N, 1° 19' E Click for more
413924 CTD/STD cast 1992-04-08 03:09Z 61° 10' N, 1° 41' E Click for more
413936 CTD/STD cast 1992-04-08 04:27Z 61° 10' N, 2° 0' E Click for more
413948 CTD/STD cast 1992-04-08 05:41Z 61° 10' N, 2° 20' E Click for more
413961 CTD/STD cast 1992-04-08 07:02Z 61° 9' N, 2° 42' E Click for more
413973 CTD/STD cast 1992-04-08 11:09Z 60° 29' N, 3° 0' E Click for more
413985 CTD/STD cast 1992-04-08 12:38Z 60° 30' N, 2° 39' E Click for more
413997 CTD/STD cast 1992-04-08 13:47Z 60° 30' N, 2° 19' E Click for more
414000 CTD/STD cast 1992-04-08 16:20Z 60° 29' N, 1° 58' E Click for more
414012 CTD/STD cast 1992-04-08 17:27Z 60° 30' N, 1° 40' E Click for more
414024 CTD/STD cast 1992-04-08 18:40Z 60° 30' N, 1° 20' E Click for more
414036 CTD/STD cast 1992-04-08 20:20Z 60° 30' N, 0° 59' E Click for more
414048 CTD/STD cast 1992-04-08 21:37Z 60° 30' N, 0° 40' E Click for more
414061 CTD/STD cast 1992-04-08 23:05Z 60° 30' N, 0° 16' E Click for more
414073 CTD/STD cast 1992-04-09 00:44Z 60° 30' N, 0° 4' W Click for more
414085 CTD/STD cast 1992-04-09 02:37Z 60° 29' N, 0° 21' W Click for more
414097 CTD/STD cast 1992-04-09 07:24Z 59° 45' N, 0° 58' W Click for more
414104 CTD/STD cast 1992-04-09 08:36Z 59° 45' N, 0° 39' W Click for more
414116 CTD/STD cast 1992-04-09 11:07Z 59° 44' N, 0° 18' W Click for more
414128 CTD/STD cast 1992-04-09 12:14Z 59° 45' N, 0° 0' W Click for more
414141 CTD/STD cast 1992-04-09 13:48Z 59° 45' N, 0° 21' E Click for more
414153 CTD/STD cast 1992-04-09 15:04Z 59° 45' N, 0° 41' E Click for more
414165 CTD/STD cast 1992-04-09 16:17Z 59° 45' N, 1° 1' E Click for more
414177 CTD/STD cast 1992-04-09 17:28Z 59° 45' N, 1° 20' E Click for more
414189 CTD/STD cast 1992-04-09 19:03Z 59° 46' N, 1° 40' E Click for more
414190 CTD/STD cast 1992-04-09 20:19Z 59° 45' N, 2° 0' E Click for more
414208 CTD/STD cast 1992-04-10 05:26Z 58° 59' N, 2° 3' E Click for more
414221 CTD/STD cast 1992-04-10 07:03Z 59° 0' N, 1° 39' E Click for more
414233 CTD/STD cast 1992-04-10 08:28Z 59° 0' N, 1° 19' E Click for more
414245 CTD/STD cast 1992-04-10 10:20Z 59° 0' N, 0° 59' E Click for more
414257 CTD/STD cast 1992-04-10 12:42Z 59° 0' N, 0° 39' E Click for more
414269 CTD/STD cast 1992-04-10 13:59Z 59° 0' N, 0° 18' E Click for more
414270 CTD/STD cast 1992-04-10 15:18Z 59° 0' N, 0° 1' W Click for more
414282 CTD/STD cast 1992-04-10 16:41Z 59° 0' N, 0° 21' W Click for more
414294 CTD/STD cast 1992-04-10 18:04Z 58° 59' N, 0° 41' W Click for more
414301 CTD/STD cast 1992-04-10 19:20Z 59° 0' N, 1° 0' W Click for more
414313 CTD/STD cast 1992-04-10 20:29Z 59° 0' N, 1° 19' W Click for more
414325 CTD/STD cast 1992-04-10 21:53Z 59° 0' N, 1° 42' W Click for more
414337 CTD/STD cast 1992-04-10 23:00Z 59° 0' N, 2° 1' W Click for more
414349 CTD/STD cast 1992-04-11 00:12Z 58° 59' N, 2° 21' W Click for more
414350 CTD/STD cast 1992-04-11 05:14Z 58° 15' N, 2° 40' W Click for more
414362 CTD/STD cast 1992-04-11 06:20Z 58° 15' N, 2° 20' W Click for more
414374 CTD/STD cast 1992-04-11 07:24Z 58° 15' N, 2° 0' W Click for more
414386 CTD/STD cast 1992-04-11 08:33Z 58° 15' N, 1° 40' W Click for more
414398 CTD/STD cast 1992-04-11 09:47Z 58° 15' N, 1° 21' W Click for more
414405 CTD/STD cast 1992-04-11 11:00Z 58° 15' N, 1° 0' W Click for more
414417 CTD/STD cast 1992-04-11 12:16Z 58° 15' N, 0° 40' W Click for more
414429 CTD/STD cast 1992-04-11 13:27Z 58° 15' N, 0° 20' W Click for more
414430 CTD/STD cast 1992-04-11 14:45Z 58° 15' N, 0° 0' W Click for more
414442 CTD/STD cast 1992-04-11 16:02Z 58° 15' N, 0° 21' E Click for more
414454 CTD/STD cast 1992-04-11 17:25Z 58° 15' N, 0° 42' E Click for more
414466 CTD/STD cast 1992-04-11 18:41Z 58° 17' N, 0° 57' E Click for more
414478 CTD/STD cast 1992-04-11 20:14Z 58° 15' N, 1° 21' E Click for more
414491 CTD/STD cast 1992-04-11 21:58Z 58° 15' N, 1° 40' E Click for more
414509 CTD/STD cast 1992-04-11 23:05Z 58° 15' N, 2° 0' E Click for more
414510 CTD/STD cast 1992-04-12 04:25Z 57° 20' N, 2° 1' E Click for more
414522 CTD/STD cast 1992-04-12 05:42Z 57° 19' N, 1° 41' E Click for more
414534 CTD/STD cast 1992-04-12 06:58Z 57° 20' N, 1° 20' E Click for more
414546 CTD/STD cast 1992-04-12 08:53Z 57° 19' N, 0° 59' E Click for more
414558 CTD/STD cast 1992-04-12 10:06Z 57° 19' N, 0° 39' E Click for more
414571 CTD/STD cast 1992-04-12 12:06Z 57° 20' N, 0° 19' E Click for more
414583 CTD/STD cast 1992-04-12 13:18Z 57° 20' N, 0° 0' E Click for more
414595 CTD/STD cast 1992-04-12 14:51Z 57° 20' N, 0° 19' W Click for more
414602 CTD/STD cast 1992-04-12 16:26Z 57° 19' N, 0° 39' W Click for more
414614 CTD/STD cast 1992-04-12 17:53Z 57° 19' N, 1° 0' W Click for more
414626 CTD/STD cast 1992-04-12 19:10Z 57° 19' N, 1° 21' W Click for more
414638 CTD/STD cast 1992-04-12 20:27Z 57° 19' N, 1° 39' W Click for more
414651 CTD/STD cast 1992-04-13 01:48Z 56° 30' N, 2° 19' W Click for more
414663 CTD/STD cast 1992-04-13 03:57Z 56° 30' N, 2° 0' W Click for more
414675 CTD/STD cast 1992-04-13 05:05Z 56° 30' N, 1° 39' W Click for more
414687 CTD/STD cast 1992-04-13 06:16Z 56° 30' N, 1° 20' W Click for more
414699 CTD/STD cast 1992-04-13 07:18Z 56° 30' N, 1° 1' W Click for more
414706 CTD/STD cast 1992-04-13 08:46Z 56° 29' N, 0° 39' W Click for more
414718 CTD/STD cast 1992-04-13 11:17Z 56° 30' N, 0° 19' W Click for more
414731 CTD/STD cast 1992-04-13 12:44Z 56° 30' N, 0° 0' E Click for more
414743 CTD/STD cast 1992-04-13 13:58Z 56° 30' N, 0° 21' E Click for more
414755 CTD/STD cast 1992-04-13 15:30Z 56° 30' N, 0° 39' E Click for more
414767 CTD/STD cast 1992-04-13 17:02Z 56° 30' N, 1° 0' E Click for more

Project Database

No data currently held for this cruise in the BODC Project Database

References

Track Charts

Track Chart

Reports

Cruise Report